Showing default

IRIDIUM 154, 43574

Orbit data source: Space-Track

IRIDIUM 154, 43574 is a payload satellite owned by Iridium (US) in LEO that was launched on Wed, 25 Jul 2018 UTC via an FALCON 9 launch vehicle from the Air Force Western Test Range (AFWTR). Payload-class satellites include a variety of spacecraft equipped with specific instruments for various scientific and technological missions. These include communications satellites like Starlink; space stations such as the ISS; scientific satellites like the Hubble; Earth observation satellites from companies like Planet Labs, Umbra, and HawkEye 360; GPS; miniature CubeSats for education and research; and military/defense satellites.

Loading next visibility...
Identifier
43574, 2018-061F
Orbit
LEO
Country
Flag of USUS
Related business
Manufacturer
NGIS SSG Gilbert
Mission
Operational Commercial Communications
Bus & Motor
ELITEBUS, Unknown motor
Mass
860 kg wet, 700 kg dry
Launch date (UTC)
2018-07-25 (7 years ago)
Launch vehicle
FALCON 9
Launch site
Air Force Western Test Range (AFWTR)
Object type
Payload
Rocket body
Debris
Shape & HBR
Trap Box + 2 Pan, 4.7 m
Radar Cross Section
14.423 m², Large (>1 m²)

Expand to show TLE details & history
Last TLE update: 15 hours ago

TLE from 15 hours ago
0 IRIDIUM 154
1 43574U 18061F   25258.76224835  .00000275  00000-0  91018-4 0  9995
2 43574  86.4047 171.4885 0002226  82.7109 277.4340 14.34218614374079
Epoch: 2025-09-15T18:17Z
TLE epoch observation values (Epoch: 2025-09-15T18:17:38.257Z)
Latitude
Longitude
-97.88315°
Altitude
780.51 km
Speed
7.464 km/s
True Right ascension
11h 25m 57s
True Declination
0° 00' 00"
Sunlit
Object was in daylight at epoch
Visualization orbit readout
Latitude
Unknown
Longitude
Unknown
Altitude
Unknown
Speed
Unknown
Apparent Right ascension
Unknown
Apparent Declination
Unknown
Sunlit
N/A
Visualization observer readout
Local Sidereal Time
02:15:44
Azimuth
Unknown
Elevation
Unknown
Doppler factor
Unknown
Orbital elements
Apogee altitude
776.221 km
Perigee altitude
773.036 km
Semi-major axis
7,152.766 km
Eccentricity
0.00022
Inclination
86.4047°
RAAN
171.4885°
Arg. of periapsis
82.7109°
True anomaly
277.40871°
Mean anomaly
277.434°
Eccentric anomaly
277.42135°
Mean motion
3.58783 °/min
Orbital period
100.34 mins
BSTAR
0.000091018
Loading maneuver chart data...
Computing Atmospheric mass density...
Loading historical data...
Loading historical data...
Loading historical data...
Loading historical data...
Loading historical data...
Loading historical data...
Loading historical data...

Documentation

Showing up to 5 results
|